owner,sensor,date,latitude,longitude,vertical_datum,sea_water_temperature,qcFlag 
DISL,ioos:station:DISL:CATA:1,2015-11-01T00:00:00Z,30.3085,-88.1395,0.0,23.7,2 
DISL,ioos:station:DISL:CATA:1,2015-11-01T00:30:00Z,30.3085,-88.1395,0.0,23.7,2 
DISL,ioos:station:DISL:CATA:1,2015-11-01T01:00:00Z,30.3085,-88.1395,0.0,23.71,2 
DISL,ioos:station:DISL:CATA:1,2015-11-01T01:30:00Z,30.3085,-88.1395,0.0,23.75,2 
DISL,ioos:station:DISL:CATA:1,2015-11-01T02:00:00Z,30.3085,-88.1395,0.0,23.69,2 
DISL,ioos:station:DISL:CATA:1,2015-11-01T02:30:00Z,30.3085,-88.1395,0.0,23.7,2 
DISL,ioos:station:DISL:CATA:1,2015-11-01T03:00:00Z,30.3085,-88.1395,0.0,23.68,2 
DISL,ioos:station:DISL:CATA:1,2015-11-01T03:30:00Z,30.3085,-88.1395,0.0,23.66,2 
DISL,ioos:station:DISL:CATA:1,2015-11-01T04:00:00Z,30.3085,-88.1395,0.0,23.65,2 
DISL,ioos:station:DISL:CATA:1,2015-11-01T04:30:00Z,30.3085,-88.1395,0.0,23.63,2 
DISL,ioos:station:DISL:CATA:1,2015-11-01T05:00:00Z,30.3085,-88.1395,0.0,23.59,2 
DISL,ioos:station:DISL:CATA:1,2015-11-01T05:30:00Z,30.3085,-88.1395,0.0,23.57,2 
DISL,ioos:station:DISL:CATA:1,2015-11-01T06:00:00Z,30.3085,-88.1395,0.0,23.6,2 
DISL,ioos:station:DISL:CATA:1,2015-11-01T06:30:00Z,30.3085,-88.1395,0.0,23.63,2 
DISL,ioos:station:DISL:CATA:1,2015-11-01T07:00:00Z,30.3085,-88.1395,0.0,23.62,2 
DISL,ioos:station:DISL:CATA:1,2015-11-01T07:30:00Z,30.3085,-88.1395,0.0,23.61,2 
DISL,ioos:station:DISL:CATA:1,2015-11-01T08:00:00Z,30.3085,-88.1395,0.0,23.62,2 
DISL,ioos:station:DISL:CATA:1,2015-11-01T08:30:00Z,30.3085,-88.1395,0.0,23.56,2 
DISL,ioos:station:DISL:CATA:1,2015-11-01T09:00:00Z,30.3085,-88.1395,0.0,23.49,2 
DISL,ioos:station:DISL:CATA:1,2015-11-01T09:30:00Z,30.3085,-88.1395,0.0,23.45,2 
DISL,ioos:station:DISL:CATA:1,2015-11-01T10:00:00Z,30.3085,-88.1395,0.0,23.38,2 
DISL,ioos:station:DISL:CATA:1,2015-11-01T10:30:00Z,30.3085,-88.1395,0.0,23.56,2 
DISL,ioos:station:DISL:CATA:1,2015-11-01T11:00:00Z,30.3085,-88.1395,0.0,23.45,2 
DISL,ioos:station:DISL:CATA:1,2015-11-01T11:30:00Z,30.3085,-88.1395,0.0,23.45,2 
DISL,ioos:station:DISL:CATA:1,2015-11-01T12:00:00Z,30.3085,-88.1395,0.0,23.44,2 
DISL,ioos:station:DISL:CATA:1,2015-11-01T12:30:00Z,30.3085,-88.1395,0.0,23.43,2 
DISL,ioos:station:DISL:CATA:1,2015-11-01T13:00:00Z,30.3085,-88.1395,0.0,23.45,2 
DISL,ioos:station:DISL:CATA:1,2015-11-01T13:30:00Z,30.3085,-88.1395,0.0,23.35,2 
DISL,ioos:station:DISL:CATA:1,2015-11-01T14:00:00Z,30.3085,-88.1395,0.0,23.35,2 
DISL,ioos:station:DISL:CATA:1,2015-11-01T14:30:00Z,30.3085,-88.1395,0.0,23.34,2 
DISL,ioos:station:DISL:CATA:1,2015-11-01T15:00:00Z,30.3085,-88.1395,0.0,23.27,2 
DISL,ioos:station:DISL:CATA:1,2015-11-01T15:30:00Z,30.3085,-88.1395,0.0,23.24,2 
DISL,ioos:station:DISL:CATA:1,2015-11-01T16:00:00Z,30.3085,-88.1395,0.0,23.2,2 
DISL,ioos:station:DISL:CATA:1,2015-11-01T16:30:00Z,30.3085,-88.1395,0.0,23.16,2 
DISL,ioos:station:DISL:CATA:1,2015-11-01T17:00:00Z,30.3085,-88.1395,0.0,23.1,2 
DISL,ioos:station:DISL:CATA:1,2015-11-01T17:30:00Z,30.3085,-88.1395,0.0,23.05,2 
DISL,ioos:station:DISL:CATA:1,2015-11-01T18:00:00Z,30.3085,-88.1395,0.0,23.03,2 
DISL,ioos:station:DISL:CATA:1,2015-11-01T18:30:00Z,30.3085,-88.1395,0.0,22.98,2 
DISL,ioos:station:DISL:CATA:1,2015-11-01T19:00:00Z,30.3085,-88.1395,0.0,22.93,2 
DISL,ioos:station:DISL:CATA:1,2015-11-01T19:30:00Z,30.3085,-88.1395,0.0,22.91,2 
DISL,ioos:station:DISL:CATA:1,2015-11-01T20:00:00Z,30.3085,-88.1395,0.0,22.9,2 
DISL,ioos:station:DISL:CATA:1,2015-11-01T20:30:00Z,30.3085,-88.1395,0.0,22.87,2 
DISL,ioos:station:DISL:CATA:1,2015-11-01T21:00:00Z,30.3085,-88.1395,0.0,22.86,2 
DISL,ioos:station:DISL:CATA:1,2015-11-01T21:30:00Z,30.3085,-88.1395,0.0,22.88,2 
DISL,ioos:station:DISL:CATA:1,2015-11-01T22:00:00Z,30.3085,-88.1395,0.0,22.8,2 
DISL,ioos:station:DISL:CATA:1,2015-11-01T22:30:00Z,30.3085,-88.1395,0.0,22.77,2 
DISL,ioos:station:DISL:CATA:1,2015-11-01T23:00:00Z,30.3085,-88.1395,0.0,22.76,2 
DISL,ioos:station:DISL:CATA:1,2015-11-01T23:30:00Z,30.3085,-88.1395,0.0,22.72,2 
DISL,ioos:station:DISL:CATA:1,2015-11-02T00:00:00Z,30.3085,-88.1395,0.0,22.65,2 
DISL,ioos:station:DISL:CATA:1,2015-11-02T00:30:00Z,30.3085,-88.1395,0.0,22.66,2 
DISL,ioos:station:DISL:CATA:1,2015-11-02T01:00:00Z,30.3085,-88.1395,0.0,22.64,2 
DISL,ioos:station:DISL:CATA:1,2015-11-02T01:30:00Z,30.3085,-88.1395,0.0,22.61,2 
DISL,ioos:station:DISL:CATA:1,2015-11-02T02:00:00Z,30.3085,-88.1395,0.0,22.53,2 
DISL,ioos:station:DISL:CATA:1,2015-11-02T02:30:00Z,30.3085,-88.1395,0.0,22.51,2 
DISL,ioos:station:DISL:CATA:1,2015-11-02T03:00:00Z,30.3085,-88.1395,0.0,22.58,2 
DISL,ioos:station:DISL:CATA:1,2015-11-02T03:30:00Z,30.3085,-88.1395,0.0,22.58,2 
DISL,ioos:station:DISL:CATA:1,2015-11-02T04:00:00Z,30.3085,-88.1395,0.0,22.48,2 
DISL,ioos:station:DISL:CATA:1,2015-11-02T04:30:00Z,30.3085,-88.1395,0.0,22.52,2 
DISL,ioos:station:DISL:CATA:1,2015-11-02T05:00:00Z,30.3085,-88.1395,0.0,22.47,2 
DISL,ioos:station:DISL:CATA:1,2015-11-02T05:30:00Z,30.3085,-88.1395,0.0,22.52,2 
DISL,ioos:station:DISL:CATA:1,2015-11-02T06:00:00Z,30.3085,-88.1395,0.0,22.55,2 
DISL,ioos:station:DISL:CATA:1,2015-11-02T06:30:00Z,30.3085,-88.1395,0.0,22.57,2 
DISL,ioos:station:DISL:CATA:1,2015-11-02T07:00:00Z,30.3085,-88.1395,0.0,22.6,2 
DISL,ioos:station:DISL:CATA:1,2015-11-02T07:30:00Z,30.3085,-88.1395,0.0,22.61,2 
DISL,ioos:station:DISL:CATA:1,2015-11-02T08:00:00Z,30.3085,-88.1395,0.0,22.6,2 
DISL,ioos:station:DISL:CATA:1,2015-11-02T08:30:00Z,30.3085,-88.1395,0.0,22.58,2 
DISL,ioos:station:DISL:CATA:1,2015-11-02T09:00:00Z,30.3085,-88.1395,0.0,22.58,2 
DISL,ioos:station:DISL:CATA:1,2015-11-02T09:30:00Z,30.3085,-88.1395,0.0,22.58,2 
DISL,ioos:station:DISL:CATA:1,2015-11-02T10:00:00Z,30.3085,-88.1395,0.0,22.24,2 
DISL,ioos:station:DISL:CATA:1,2015-11-02T10:30:00Z,30.3085,-88.1395,0.0,22.18,2 
DISL,ioos:station:DISL:CATA:1,2015-11-02T11:00:00Z,30.3085,-88.1395,0.0,22.21,2 
DISL,ioos:station:DISL:CATA:1,2015-11-02T11:30:00Z,30.3085,-88.1395,0.0,22.17,2 
DISL,ioos:station:DISL:CATA:1,2015-11-02T12:00:00Z,30.3085,-88.1395,0.0,22.09,2 
DISL,ioos:station:DISL:CATA:1,2015-11-02T12:30:00Z,30.3085,-88.1395,0.0,22.08,2 
DISL,ioos:station:DISL:CATA:1,2015-11-02T13:00:00Z,30.3085,-88.1395,0.0,22.08,2 
DISL,ioos:station:DISL:CATA:1,2015-11-02T13:30:00Z,30.3085,-88.1395,0.0,22.17,2 
DISL,ioos:station:DISL:CATA:1,2015-11-02T14:00:00Z,30.3085,-88.1395,0.0,22.29,2 
DISL,ioos:station:DISL:CATA:1,2015-11-02T14:30:00Z,30.3085,-88.1395,0.0,22.47,2 
DISL,ioos:station:DISL:CATA:1,2015-11-02T15:00:00Z,30.3085,-88.1395,0.0,22.6,2 
DISL,ioos:station:DISL:CATA:1,2015-11-02T15:30:00Z,30.3085,-88.1395,0.0,22.7,2 
DISL,ioos:station:DISL:CATA:1,2015-11-02T16:00:00Z,30.3085,-88.1395,0.0,22.81,2 
DISL,ioos:station:DISL:CATA:1,2015-11-02T16:30:00Z,30.3085,-88.1395,0.0,22.89,2 
DISL,ioos:station:DISL:CATA:1,2015-11-02T17:00:00Z,30.3085,-88.1395,0.0,22.94,2 
DISL,ioos:station:DISL:CATA:1,2015-11-02T17:30:00Z,30.3085,-88.1395,0.0,22.97,2 
DISL,ioos:station:DISL:CATA:1,2015-11-02T18:00:00Z,30.3085,-88.1395,0.0,22.98,2 
DISL,ioos:station:DISL:CATA:1,2015-11-02T18:30:00Z,30.3085,-88.1395,0.0,22.94,2 
DISL,ioos:station:DISL:CATA:1,2015-11-02T19:00:00Z,30.3085,-88.1395,0.0,22.91,2 
DISL,ioos:station:DISL:CATA:1,2015-11-02T19:30:00Z,30.3085,-88.1395,0.0,22.93,2 
DISL,ioos:station:DISL:CATA:1,2015-11-02T20:00:00Z,30.3085,-88.1395,0.0,23.78,2 
DISL,ioos:station:DISL:CATA:1,2015-11-02T20:30:00Z,30.3085,-88.1395,0.0,23.87,2 
DISL,ioos:station:DISL:CATA:1,2015-11-02T21:00:00Z,30.3085,-88.1395,0.0,23.85,2 
DISL,ioos:station:DISL:CATA:1,2015-11-02T21:30:00Z,30.3085,-88.1395,0.0,23.86,2 
DISL,ioos:station:DISL:CATA:1,2015-11-02T22:00:00Z,30.3085,-88.1395,0.0,23.61,2 
DISL,ioos:station:DISL:CATA:1,2015-11-02T22:30:00Z,30.3085,-88.1395,0.0,23.26,2 
DISL,ioos:station:DISL:CATA:1,2015-11-02T23:00:00Z,30.3085,-88.1395,0.0,23.2,2 
DISL,ioos:station:DISL:CATA:1,2015-11-02T23:30:00Z,30.3085,-88.1395,0.0,23.1,2 
DISL,ioos:station:DISL:CATA:1,2015-11-03T00:00:00Z,30.3085,-88.1395,0.0,23.1,2 
DISL,ioos:station:DISL:CATA:1,2015-11-03T00:30:00Z,30.3085,-88.1395,0.0,23.18,2 
DISL,ioos:station:DISL:CATA:1,2015-11-03T01:00:00Z,30.3085,-88.1395,0.0,23.41,2 
DISL,ioos:station:DISL:CATA:1,2015-11-03T01:30:00Z,30.3085,-88.1395,0.0,23.58,2 
DISL,ioos:station:DISL:CATA:1,2015-11-03T02:00:00Z,30.3085,-88.1395,0.0,23.59,2 
DISL,ioos:station:DISL:CATA:1,2015-11-03T02:30:00Z,30.3085,-88.1395,0.0,23.58,2 
DISL,ioos:station:DISL:CATA:1,2015-11-03T03:00:00Z,30.3085,-88.1395,0.0,23.62,2 
DISL,ioos:station:DISL:CATA:1,2015-11-03T03:30:00Z,30.3085,-88.1395,0.0,23.61,2 
DISL,ioos:station:DISL:CATA:1,2015-11-03T04:00:00Z,30.3085,-88.1395,0.0,23.59,2 
DISL,ioos:station:DISL:CATA:1,2015-11-03T04:30:00Z,30.3085,-88.1395,0.0,23.53,2 
DISL,ioos:station:DISL:CATA:1,2015-11-03T05:00:00Z,30.3085,-88.1395,0.0,23.46,2 
DISL,ioos:station:DISL:CATA:1,2015-11-03T05:30:00Z,30.3085,-88.1395,0.0,23.39,2 
DISL,ioos:station:DISL:CATA:1,2015-11-03T06:00:00Z,30.3085,-88.1395,0.0,23.29,2 
DISL,ioos:station:DISL:CATA:1,2015-11-03T06:30:00Z,30.3085,-88.1395,0.0,23.2,2 
DISL,ioos:station:DISL:CATA:1,2015-11-03T07:00:00Z,30.3085,-88.1395,0.0,23.09,2 
DISL,ioos:station:DISL:CATA:1,2015-11-03T07:30:00Z,30.3085,-88.1395,0.0,23.08,2 
DISL,ioos:station:DISL:CATA:1,2015-11-03T08:00:00Z,30.3085,-88.1395,0.0,23.01,2 
DISL,ioos:station:DISL:CATA:1,2015-11-03T08:30:00Z,30.3085,-88.1395,0.0,23.0,2 
DISL,ioos:station:DISL:CATA:1,2015-11-03T09:00:00Z,30.3085,-88.1395,0.0,23.0,2 
DISL,ioos:station:DISL:CATA:1,2015-11-03T09:30:00Z,30.3085,-88.1395,0.0,22.99,2 
DISL,ioos:station:DISL:CATA:1,2015-11-03T10:00:00Z,30.3085,-88.1395,0.0,23.01,2 
DISL,ioos:station:DISL:CATA:1,2015-11-03T10:30:00Z,30.3085,-88.1395,0.0,22.98,2 
DISL,ioos:station:DISL:CATA:1,2015-11-03T11:00:00Z,30.3085,-88.1395,0.0,22.97,2 
DISL,ioos:station:DISL:CATA:1,2015-11-03T11:30:00Z,30.3085,-88.1395,0.0,22.73,2 
DISL,ioos:station:DISL:CATA:1,2015-11-03T12:00:00Z,30.3085,-88.1395,0.0,22.6,2 
DISL,ioos:station:DISL:CATA:1,2015-11-03T12:30:00Z,30.3085,-88.1395,0.0,22.63,2 
DISL,ioos:station:DISL:CATA:1,2015-11-03T13:00:00Z,30.3085,-88.1395,0.0,22.75,2 
DISL,ioos:station:DISL:CATA:1,2015-11-03T13:30:00Z,30.3085,-88.1395,0.0,22.73,2 
DISL,ioos:station:DISL:CATA:1,2015-11-03T14:00:00Z,30.3085,-88.1395,0.0,22.78,2 
DISL,ioos:station:DISL:CATA:1,2015-11-03T14:30:00Z,30.3085,-88.1395,0.0,22.77,2 
DISL,ioos:station:DISL:CATA:1,2015-11-03T15:00:00Z,30.3085,-88.1395,0.0,22.83,2 
DISL,ioos:station:DISL:CATA:1,2015-11-03T15:30:00Z,30.3085,-88.1395,0.0,22.83,2 
DISL,ioos:station:DISL:CATA:1,2015-11-03T16:00:00Z,30.3085,-88.1395,0.0,22.84,2 
DISL,ioos:station:DISL:CATA:1,2015-11-03T16:30:00Z,30.3085,-88.1395,0.0,22.9,2 
DISL,ioos:station:DISL:CATA:1,2015-11-03T17:00:00Z,30.3085,-88.1395,0.0,22.99,2 
DISL,ioos:station:DISL:CATA:1,2015-11-03T17:30:00Z,30.3085,-88.1395,0.0,23.14,2 
DISL,ioos:station:DISL:CATA:1,2015-11-03T18:00:00Z,30.3085,-88.1395,0.0,23.02,2 
DISL,ioos:station:DISL:CATA:1,2015-11-03T18:30:00Z,30.3085,-88.1395,0.0,23.13,2 
DISL,ioos:station:DISL:CATA:1,2015-11-03T19:00:00Z,30.3085,-88.1395,0.0,23.28,2 
DISL,ioos:station:DISL:CATA:1,2015-11-03T19:30:00Z,30.3085,-88.1395,0.0,23.5,2 
DISL,ioos:station:DISL:CATA:1,2015-11-03T20:00:00Z,30.3085,-88.1395,0.0,23.63,2 
DISL,ioos:station:DISL:CATA:1,2015-11-03T20:30:00Z,30.3085,-88.1395,0.0,23.73,2 
DISL,ioos:station:DISL:CATA:1,2015-11-03T21:00:00Z,30.3085,-88.1395,0.0,23.82,2 
DISL,ioos:station:DISL:CATA:1,2015-11-03T21:30:00Z,30.3085,-88.1395,0.0,23.8,2 
DISL,ioos:station:DISL:CATA:1,2015-11-03T22:00:00Z,30.3085,-88.1395,0.0,23.81,2 
DISL,ioos:station:DISL:CATA:1,2015-11-03T22:30:00Z,30.3085,-88.1395,0.0,23.8,2 
DISL,ioos:station:DISL:CATA:1,2015-11-03T23:00:00Z,30.3085,-88.1395,0.0,23.76,2 
DISL,ioos:station:DISL:CATA:1,2015-11-03T23:30:00Z,30.3085,-88.1395,0.0,23.74,2 
DISL,ioos:station:DISL:CATA:1,2015-11-04T00:00:00Z,30.3085,-88.1395,0.0,23.74,2 
DISL,ioos:station:DISL:CATA:1,2015-11-04T00:30:00Z,30.3085,-88.1395,0.0,23.74,2 
DISL,ioos:station:DISL:CATA:1,2015-11-04T01:00:00Z,30.3085,-88.1395,0.0,23.69,2 
DISL,ioos:station:DISL:CATA:1,2015-11-04T01:30:00Z,30.3085,-88.1395,0.0,23.63,2 
DISL,ioos:station:DISL:CATA:1,2015-11-04T02:00:00Z,30.3085,-88.1395,0.0,23.8,2 
DISL,ioos:station:DISL:CATA:1,2015-11-04T02:30:00Z,30.3085,-88.1395,0.0,23.86,2 
DISL,ioos:station:DISL:CATA:1,2015-11-04T03:00:00Z,30.3085,-88.1395,0.0,23.83,2 
DISL,ioos:station:DISL:CATA:1,2015-11-04T03:30:00Z,30.3085,-88.1395,0.0,23.8,2 
DISL,ioos:station:DISL:CATA:1,2015-11-04T04:00:00Z,30.3085,-88.1395,0.0,23.73,2 
DISL,ioos:station:DISL:CATA:1,2015-11-04T04:30:00Z,30.3085,-88.1395,0.0,23.71,2 
DISL,ioos:station:DISL:CATA:1,2015-11-04T05:00:00Z,30.3085,-88.1395,0.0,23.75,2 
DISL,ioos:station:DISL:CATA:1,2015-11-04T05:30:00Z,30.3085,-88.1395,0.0,23.78,2 
DISL,ioos:station:DISL:CATA:1,2015-11-04T06:00:00Z,30.3085,-88.1395,0.0,23.81,2 
DISL,ioos:station:DISL:CATA:1,2015-11-04T06:30:00Z,30.3085,-88.1395,0.0,23.81,2 
DISL,ioos:station:DISL:CATA:1,2015-11-04T07:00:00Z,30.3085,-88.1395,0.0,23.79,2 
DISL,ioos:station:DISL:CATA:1,2015-11-04T07:30:00Z,30.3085,-88.1395,0.0,23.78,2 
DISL,ioos:station:DISL:CATA:1,2015-11-04T08:00:00Z,30.3085,-88.1395,0.0,23.78,2 
DISL,ioos:station:DISL:CATA:1,2015-11-04T08:30:00Z,30.3085,-88.1395,0.0,23.76,2 
DISL,ioos:station:DISL:CATA:1,2015-11-04T09:00:00Z,30.3085,-88.1395,0.0,23.73,2 
DISL,ioos:station:DISL:CATA:1,2015-11-04T09:30:00Z,30.3085,-88.1395,0.0,23.63,2 
DISL,ioos:station:DISL:CATA:1,2015-11-04T10:00:00Z,30.3085,-88.1395,0.0,23.6,2 
DISL,ioos:station:DISL:CATA:1,2015-11-04T10:30:00Z,30.3085,-88.1395,0.0,23.57,2 
DISL,ioos:station:DISL:CATA:1,2015-11-04T11:00:00Z,30.3085,-88.1395,0.0,23.57,2 
DISL,ioos:station:DISL:CATA:1,2015-11-04T11:30:00Z,30.3085,-88.1395,0.0,23.55,2 
DISL,ioos:station:DISL:CATA:1,2015-11-04T12:00:00Z,30.3085,-88.1395,0.0,23.62,2 
DISL,ioos:station:DISL:CATA:1,2015-11-04T12:30:00Z,30.3085,-88.1395,0.0,23.28,2 
DISL,ioos:station:DISL:CATA:1,2015-11-04T13:00:00Z,30.3085,-88.1395,0.0,23.04,2 
DISL,ioos:station:DISL:CATA:1,2015-11-04T13:30:00Z,30.3085,-88.1395,0.0,23.05,2 
DISL,ioos:station:DISL:CATA:1,2015-11-04T14:00:00Z,30.3085,-88.1395,0.0,23.06,2 
DISL,ioos:station:DISL:CATA:1,2015-11-04T14:30:00Z,30.3085,-88.1395,0.0,23.25,2 
DISL,ioos:station:DISL:CATA:1,2015-11-04T15:00:00Z,30.3085,-88.1395,0.0,23.18,2 
DISL,ioos:station:DISL:CATA:1,2015-11-04T15:30:00Z,30.3085,-88.1395,0.0,23.27,2 
DISL,ioos:station:DISL:CATA:1,2015-11-04T16:00:00Z,30.3085,-88.1395,0.0,23.34,2 
DISL,ioos:station:DISL:CATA:1,2015-11-04T16:30:00Z,30.3085,-88.1395,0.0,23.52,2 
DISL,ioos:station:DISL:CATA:1,2015-11-04T17:00:00Z,30.3085,-88.1395,0.0,23.71,2 
DISL,ioos:station:DISL:CATA:1,2015-11-04T17:30:00Z,30.3085,-88.1395,0.0,23.84,2 
DISL,ioos:station:DISL:CATA:1,2015-11-04T18:00:00Z,30.3085,-88.1395,0.0,23.93,2 
DISL,ioos:station:DISL:CATA:1,2015-11-04T18:30:00Z,30.3085,-88.1395,0.0,23.95,2 
DISL,ioos:station:DISL:CATA:1,2015-11-04T19:00:00Z,30.3085,-88.1395,0.0,24.07,2 
DISL,ioos:station:DISL:CATA:1,2015-11-04T19:30:00Z,30.3085,-88.1395,0.0,24.17,2 
DISL,ioos:station:DISL:CATA:1,2015-11-04T20:00:00Z,30.3085,-88.1395,0.0,24.27,2 
DISL,ioos:station:DISL:CATA:1,2015-11-04T20:30:00Z,30.3085,-88.1395,0.0,24.25,2 
DISL,ioos:station:DISL:CATA:1,2015-11-04T21:00:00Z,30.3085,-88.1395,0.0,24.27,2 
DISL,ioos:station:DISL:CATA:1,2015-11-04T21:30:00Z,30.3085,-88.1395,0.0,24.23,2 
DISL,ioos:station:DISL:CATA:1,2015-11-04T22:00:00Z,30.3085,-88.1395,0.0,24.31,2 
DISL,ioos:station:DISL:CATA:1,2015-11-04T22:30:00Z,30.3085,-88.1395,0.0,24.35,2 
DISL,ioos:station:DISL:CATA:1,2015-11-04T23:00:00Z,30.3085,-88.1395,0.0,24.35,2 
DISL,ioos:station:DISL:CATA:1,2015-11-04T23:30:00Z,30.3085,-88.1395,0.0,24.37,2 
DISL,ioos:station:DISL:CATA:1,2015-11-05T00:00:00Z,30.3085,-88.1395,0.0,24.4,2 
DISL,ioos:station:DISL:CATA:1,2015-11-05T00:30:00Z,30.3085,-88.1395,0.0,24.4,2 
DISL,ioos:station:DISL:CATA:1,2015-11-05T01:00:00Z,30.3085,-88.1395,0.0,24.39,2 
DISL,ioos:station:DISL:CATA:1,2015-11-05T01:30:00Z,30.3085,-88.1395,0.0,24.38,2 
DISL,ioos:station:DISL:CATA:1,2015-11-05T02:00:00Z,30.3085,-88.1395,0.0,24.37,2 
DISL,ioos:station:DISL:CATA:1,2015-11-05T02:30:00Z,30.3085,-88.1395,0.0,24.38,2 
DISL,ioos:station:DISL:CATA:1,2015-11-05T03:00:00Z,30.3085,-88.1395,0.0,24.34,2 
DISL,ioos:station:DISL:CATA:1,2015-11-05T03:30:00Z,30.3085,-88.1395,0.0,24.29,2 
DISL,ioos:station:DISL:CATA:1,2015-11-05T04:00:00Z,30.3085,-88.1395,0.0,24.23,2 
DISL,ioos:station:DISL:CATA:1,2015-11-05T04:30:00Z,30.3085,-88.1395,0.0,24.21,2 
DISL,ioos:station:DISL:CATA:1,2015-11-05T05:00:00Z,30.3085,-88.1395,0.0,24.17,2 
DISL,ioos:station:DISL:CATA:1,2015-11-05T05:30:00Z,30.3085,-88.1395,0.0,24.16,2 
DISL,ioos:station:DISL:CATA:1,2015-11-05T06:00:00Z,30.3085,-88.1395,0.0,24.11,2 
DISL,ioos:station:DISL:CATA:1,2015-11-05T06:30:00Z,30.3085,-88.1395,0.0,24.12,2 
DISL,ioos:station:DISL:CATA:1,2015-11-05T07:00:00Z,30.3085,-88.1395,0.0,24.16,2 
DISL,ioos:station:DISL:CATA:1,2015-11-05T07:30:00Z,30.3085,-88.1395,0.0,24.24,2 
DISL,ioos:station:DISL:CATA:1,2015-11-05T08:00:00Z,30.3085,-88.1395,0.0,24.28,2 
DISL,ioos:station:DISL:CATA:1,2015-11-05T08:30:00Z,30.3085,-88.1395,0.0,24.24,2 
DISL,ioos:station:DISL:CATA:1,2015-11-05T09:00:00Z,30.3085,-88.1395,0.0,24.18,2 
DISL,ioos:station:DISL:CATA:1,2015-11-05T09:30:00Z,30.3085,-88.1395,0.0,24.12,2 
DISL,ioos:station:DISL:CATA:1,2015-11-05T10:00:00Z,30.3085,-88.1395,0.0,24.11,2 
DISL,ioos:station:DISL:CATA:1,2015-11-05T10:30:00Z,30.3085,-88.1395,0.0,24.03,2 
DISL,ioos:station:DISL:CATA:1,2015-11-05T11:00:00Z,30.3085,-88.1395,0.0,23.96,2 
DISL,ioos:station:DISL:CATA:1,2015-11-05T11:30:00Z,30.3085,-88.1395,0.0,24.27,2 
DISL,ioos:station:DISL:CATA:1,2015-11-05T12:00:00Z,30.3085,-88.1395,0.0,24.26,2 
DISL,ioos:station:DISL:CATA:1,2015-11-05T12:30:00Z,30.3085,-88.1395,0.0,24.22,2 
DISL,ioos:station:DISL:CATA:1,2015-11-05T13:00:00Z,30.3085,-88.1395,0.0,24.2,2 
DISL,ioos:station:DISL:CATA:1,2015-11-05T13:30:00Z,30.3085,-88.1395,0.0,24.19,2 
DISL,ioos:station:DISL:CATA:1,2015-11-05T14:00:00Z,30.3085,-88.1395,0.0,24.18,2 
DISL,ioos:station:DISL:CATA:1,2015-11-05T14:30:00Z,30.3085,-88.1395,0.0,24.14,2 
DISL,ioos:station:DISL:CATA:1,2015-11-05T15:00:00Z,30.3085,-88.1395,0.0,24.02,2 
DISL,ioos:station:DISL:CATA:1,2015-11-05T15:30:00Z,30.3085,-88.1395,0.0,23.95,2 
DISL,ioos:station:DISL:CATA:1,2015-11-05T16:00:00Z,30.3085,-88.1395,0.0,24.0,2 
DISL,ioos:station:DISL:CATA:1,2015-11-05T16:30:00Z,30.3085,-88.1395,0.0,24.09,2 
DISL,ioos:station:DISL:CATA:1,2015-11-05T17:00:00Z,30.3085,-88.1395,0.0,24.22,2 
DISL,ioos:station:DISL:CATA:1,2015-11-05T17:30:00Z,30.3085,-88.1395,0.0,24.3,2 
DISL,ioos:station:DISL:CATA:1,2015-11-05T18:00:00Z,30.3085,-88.1395,0.0,24.36,2 
DISL,ioos:station:DISL:CATA:1,2015-11-05T18:30:00Z,30.3085,-88.1395,0.0,24.45,2 
DISL,ioos:station:DISL:CATA:1,2015-11-05T19:00:00Z,30.3085,-88.1395,0.0,24.76,2 
DISL,ioos:station:DISL:CATA:1,2015-11-05T19:30:00Z,30.3085,-88.1395,0.0,24.76,2 
DISL,ioos:station:DISL:CATA:1,2015-11-05T20:00:00Z,30.3085,-88.1395,0.0,24.7,2 
DISL,ioos:station:DISL:CATA:1,2015-11-05T20:30:00Z,30.3085,-88.1395,0.0,24.58,2 
DISL,ioos:station:DISL:CATA:1,2015-11-05T21:00:00Z,30.3085,-88.1395,0.0,24.56,2 
DISL,ioos:station:DISL:CATA:1,2015-11-05T21:30:00Z,30.3085,-88.1395,0.0,24.57,2 
DISL,ioos:station:DISL:CATA:1,2015-11-05T22:00:00Z,30.3085,-88.1395,0.0,24.78,2 
DISL,ioos:station:DISL:CATA:1,2015-11-05T22:30:00Z,30.3085,-88.1395,0.0,24.93,2 
DISL,ioos:station:DISL:CATA:1,2015-11-05T23:00:00Z,30.3085,-88.1395,0.0,25.1,2 
DISL,ioos:station:DISL:CATA:1,2015-11-05T23:30:00Z,30.3085,-88.1395,0.0,25.18,2 
DISL,ioos:station:DISL:CATA:1,2015-11-06T00:00:00Z,30.3085,-88.1395,0.0,24.96,2 
DISL,ioos:station:DISL:CATA:1,2015-11-06T00:30:00Z,30.3085,-88.1395,0.0,25.0,2 
DISL,ioos:station:DISL:CATA:1,2015-11-06T01:00:00Z,30.3085,-88.1395,0.0,25.09,2 
DISL,ioos:station:DISL:CATA:1,2015-11-06T01:30:00Z,30.3085,-88.1395,0.0,25.06,2 
DISL,ioos:station:DISL:CATA:1,2015-11-06T02:00:00Z,30.3085,-88.1395,0.0,25.11,2 
DISL,ioos:station:DISL:CATA:1,2015-11-06T02:30:00Z,30.3085,-88.1395,0.0,25.07,2 
DISL,ioos:station:DISL:CATA:1,2015-11-06T03:00:00Z,30.3085,-88.1395,0.0,25.02,2 
DISL,ioos:station:DISL:CATA:1,2015-11-06T03:30:00Z,30.3085,-88.1395,0.0,25.03,2 
DISL,ioos:station:DISL:CATA:1,2015-11-06T04:00:00Z,30.3085,-88.1395,0.0,25.04,2 
DISL,ioos:station:DISL:CATA:1,2015-11-06T04:30:00Z,30.3085,-88.1395,0.0,25.04,2 
DISL,ioos:station:DISL:CATA:1,2015-11-06T05:00:00Z,30.3085,-88.1395,0.0,25.04,2 
DISL,ioos:station:DISL:CATA:1,2015-11-06T05:30:00Z,30.3085,-88.1395,0.0,25.04,2 
DISL,ioos:station:DISL:CATA:1,2015-11-06T06:00:00Z,30.3085,-88.1395,0.0,25.01,2 
DISL,ioos:station:DISL:CATA:1,2015-11-06T06:30:00Z,30.3085,-88.1395,0.0,24.99,2 
DISL,ioos:station:DISL:CATA:1,2015-11-06T07:00:00Z,30.3085,-88.1395,0.0,24.93,2 
DISL,ioos:station:DISL:CATA:1,2015-11-06T07:30:00Z,30.3085,-88.1395,0.0,24.87,2 
DISL,ioos:station:DISL:CATA:1,2015-11-06T08:00:00Z,30.3085,-88.1395,0.0,24.84,2 
DISL,ioos:station:DISL:CATA:1,2015-11-06T08:30:00Z,30.3085,-88.1395,0.0,24.85,2 
DISL,ioos:station:DISL:CATA:1,2015-11-06T09:00:00Z,30.3085,-88.1395,0.0,24.86,2 
DISL,ioos:station:DISL:CATA:1,2015-11-06T09:30:00Z,30.3085,-88.1395,0.0,24.86,2 
DISL,ioos:station:DISL:CATA:1,2015-11-06T10:00:00Z,30.3085,-88.1395,0.0,24.84,2 
DISL,ioos:station:DISL:CATA:1,2015-11-06T10:30:00Z,30.3085,-88.1395,0.0,24.82,2 
DISL,ioos:station:DISL:CATA:1,2015-11-06T11:00:00Z,30.3085,-88.1395,0.0,24.82,2 
DISL,ioos:station:DISL:CATA:1,2015-11-06T11:30:00Z,30.3085,-88.1395,0.0,24.84,2 
DISL,ioos:station:DISL:CATA:1,2015-11-06T12:00:00Z,30.3085,-88.1395,0.0,24.87,2 
DISL,ioos:station:DISL:CATA:1,2015-11-06T12:30:00Z,30.3085,-88.1395,0.0,24.89,2 
DISL,ioos:station:DISL:CATA:1,2015-11-06T13:00:00Z,30.3085,-88.1395,0.0,24.89,2 
DISL,ioos:station:DISL:CATA:1,2015-11-06T13:30:00Z,30.3085,-88.1395,0.0,24.87,2 
DISL,ioos:station:DISL:CATA:1,2015-11-06T14:00:00Z,30.3085,-88.1395,0.0,24.9,2 
DISL,ioos:station:DISL:CATA:1,2015-11-06T14:30:00Z,30.3085,-88.1395,0.0,24.93,2 
DISL,ioos:station:DISL:CATA:1,2015-11-06T15:00:00Z,30.3085,-88.1395,0.0,24.95,2 
DISL,ioos:station:DISL:CATA:1,2015-11-06T15:30:00Z,30.3085,-88.1395,0.0,24.96,2 
DISL,ioos:station:DISL:CATA:1,2015-11-06T16:00:00Z,30.3085,-88.1395,0.0,24.99,2 
DISL,ioos:station:DISL:CATA:1,2015-11-06T16:30:00Z,30.3085,-88.1395,0.0,25.03,2 
DISL,ioos:station:DISL:CATA:1,2015-11-06T17:00:00Z,30.3085,-88.1395,0.0,25.03,2 
DISL,ioos:station:DISL:CATA:1,2015-11-06T17:30:00Z,30.3085,-88.1395,0.0,25.03,2 
DISL,ioos:station:DISL:CATA:1,2015-11-06T18:00:00Z,30.3085,-88.1395,0.0,25.06,2 
DISL,ioos:station:DISL:CATA:1,2015-11-06T18:30:00Z,30.3085,-88.1395,0.0,25.19,2 
DISL,ioos:station:DISL:CATA:1,2015-11-06T19:00:00Z,30.3085,-88.1395,0.0,25.53,2 
DISL,ioos:station:DISL:CATA:1,2015-11-06T19:30:00Z,30.3085,-88.1395,0.0,25.68,2 
DISL,ioos:station:DISL:CATA:1,2015-11-06T20:00:00Z,30.3085,-88.1395,0.0,25.65,2 
DISL,ioos:station:DISL:CATA:1,2015-11-06T20:30:00Z,30.3085,-88.1395,0.0,25.54,2 
DISL,ioos:station:DISL:CATA:1,2015-11-06T21:00:00Z,30.3085,-88.1395,0.0,25.58,2 
DISL,ioos:station:DISL:CATA:1,2015-11-06T21:30:00Z,30.3085,-88.1395,0.0,25.54,2 
DISL,ioos:station:DISL:CATA:1,2015-11-06T22:00:00Z,30.3085,-88.1395,0.0,25.54,2 
DISL,ioos:station:DISL:CATA:1,2015-11-06T22:30:00Z,30.3085,-88.1395,0.0,25.54,2 
DISL,ioos:station:DISL:CATA:1,2015-11-06T23:00:00Z,30.3085,-88.1395,0.0,25.55,2 
DISL,ioos:station:DISL:CATA:1,2015-11-06T23:30:00Z,30.3085,-88.1395,0.0,25.54,2 
DISL,ioos:station:DISL:CATA:1,2015-11-07T00:00:00Z,30.3085,-88.1395,0.0,25.59,2 
DISL,ioos:station:DISL:CATA:1,2015-11-07T00:30:00Z,30.3085,-88.1395,0.0,25.63,2 
DISL,ioos:station:DISL:CATA:1,2015-11-07T01:00:00Z,30.3085,-88.1395,0.0,25.63,2 
DISL,ioos:station:DISL:CATA:1,2015-11-07T01:30:00Z,30.3085,-88.1395,0.0,25.62,2 
DISL,ioos:station:DISL:CATA:1,2015-11-07T02:00:00Z,30.3085,-88.1395,0.0,25.61,2 
DISL,ioos:station:DISL:CATA:1,2015-11-07T02:30:00Z,30.3085,-88.1395,0.0,25.56,2 
DISL,ioos:station:DISL:CATA:1,2015-11-07T03:00:00Z,30.3085,-88.1395,0.0,25.49,2 